Retour au catalogue

DELTA 1 DEB

ActifSSO
NORAD 10642·DEBRIS·🇺🇸 United States

Lancé Jul 29, 1976 depuis Vandenberg Space Force Base

Loading…

Prochains Passages (prochaines 24 heures)

TLE

FraisSource: Space-Track

Époque: Sep 13, 2026, 19:16 UTC

1 10642U 76077C   26256.80289691 -.00000008  00000-0  33340-3 0  9999
2 10642 102.2554 205.3193 0102045 233.4921 183.6659 12.21840239235856

Suivez DELTA 1 DEB en temps réel avec AllMySat

Download on the App Store